OneWeb SL0621

operational
NORAD ID: 55162 Int'l Des: 2023-004 Owner: ONEWEBN Country: UK Constellation: oneweb
LEOCIRCULARPOLARONEWEB_TYPE

About OneWeb SL0621

Description loading...

Live Position

Loading 3D Globe...

Upcoming Passes

Altitude History

Altitude vs Time

uPlot chart will show altitude changes over time

Two-Line Element Set

1 55162U 23004Y 25306.41135407 .00000612 00000-0 16921-2 0 9999
2 55162 87.8859 66.2117 0001464 101.2462 258.8831 13.11413845136084
Epoch: Nov 2, 2025 • Age: 27 hours

Current Status

Altitude 1220.9 km
Velocity 7.24 km/s
Sub-Earth Point -1.13°S, 177.12°W
Launch Date Jan 10, 2023
Age 2.8 years
Type internet

Technical Details

Classification Payload
Mass 148.00 kg
Dry Mass 140.00 kg
Total Mass 148.00 kg
Length 1.30 m
Diameter 1.00 m
Span 5.00 m
Shape Trapezoid+2 pan
Manufacturer ONEWUS
Bus Type ARROW
Phase Status In Orbit
Owner/State ONEWEBN/UK

Large Constellations

Loading constellations...